Notices

What's New in latest Release from April 7th, 2021:

- Updated Glossary, including Speed of Maximum Gust, and Total Hourly Precipitation

- Updated national and regional climate services offices contacts and prices information

- Addition of station inventory lists for 1981-2010, 1971-2000, and 1961-1990 Normals.

If you haven't already, please take our survey and provide feedback about our website: https://eccc.sondage-survey.ca/f/LanguageSelection.aspx?s=442ca660-fcf1-47c0-95a9-59707d6fd709

Hourly Data Report for September 10, 2015

IQALUIT CLIMATE
NUNAVUT

63°44'50.000" N
68°32'40.000" W
33.50 m
2402592
71321
XFB

Download Data

Hourly Data (September 2015)
Hourly Data Report for September 10, 2015
TIME
LST
Temp Definition
°C
Dew Point Definition
°C
Rel Hum Definition
%
Precip. Amount Definition
mm

Wind Dir Definition
10's deg

Wind Spd Definition
km/h
Visibility Definition
km
Stn Press Definition
kPa
Hmdx Definition


Wind Chill Definition


Weather Definition


00:00 3.0 -0.8 76 0.0 32 15   100.61     LegendNANA
01:00 3.7 0.0 77 0.0 31 6   100.60     LegendNANA
02:00 LegendMM -1.1 85 0.0 27 4   100.61     LegendNANA
03:00 0.9 -1.3 85 0.0 32 11   100.61     LegendNANA
04:00 1.0 -0.7 88 0.0 31 13   100.63     LegendNANA
05:00 1.0 -0.5 90 0.0 31 10   100.64     LegendNANA
06:00 3.1 1.2 88 0.0 35 12   100.62     LegendNANA
07:00 LegendMM 1.9 81 0.0 26 4   100.63     LegendNANA
08:00 LegendMM 2.9 77 0.0 34 15   100.65     LegendNANA
09:00 6.7 3.1 78 0.0 35 15   100.66     LegendNANA
10:00 7.2 3.0 75 0.0 32 18   100.65     LegendNANA
11:00 8.6 3.6 71 0.0 32 21   100.63     LegendNANA
12:00 7.9 2.7 70 0.0 34 21   100.63     LegendNANA
13:00 9.3 3.1 65 0.0 34 18   100.63     LegendNANA
14:00 9.0 2.7 65 0.0 35 28   100.61     LegendNANA
15:00 8.7 2.3 64 0.0 35 25   100.64     LegendNANA
16:00 8.7 2.0 63 0.0 35 22   100.67     LegendNANA
17:00 8.2 1.9 65 0.0 33 20   100.72     LegendNANA
18:00 7.5 0.8 62 0.0 33 13   100.74     LegendNANA
19:00 6.5 1.5 70 0.0 32 13   100.78     LegendNANA
20:00 6.2 2.1 75 0.0 33 16   100.85     LegendNANA
21:00 6.2 2.2 76 0.0 34 17   100.89     LegendNANA
22:00 5.6 2.2 79 0.0 34 17   100.90     LegendNANA
23:00 4.8 2.0 82 0.0 34 18   100.91     LegendNANA

Notes on Data Quality.

Legend

  • E = Estimated
  • M = Missing
  • NA = Not Available*
  • [empty] = Indicates an unobserved value
Date modified: